Location: Agbati Obinu Kekere
(8.6000°N, 4.3333°E)
Time: 14:33:16
(UTC+00:00)

Daily predictions for brighter satellites

Satellite Brightness Start Highest point End
(mag) Time Altitude Azimuth Time Altitude Azimuth Time Altitude Azimuth
Milstar 3 Cent rocket 3.8 18:20:59 10° NNW 18:24:15 18° NNE 18:27:49 10° ENE
Cosmos 2266 Rocket 3.9 18:25:51 10° S 18:31:49 67° E 18:37:49 10° N
Ariane H10 4.1 18:30:35 10° SSW 18:32:55 15° SSE 18:36:46 10° SE
NOAA 11 4.5 18:28:16 10° S 18:33:41 73° WSW 18:39:05 10° NNW
MOS 1 Rocket 4.2 18:29:41 10° NE 18:34:13 33° E 18:38:56 10° SSE
Cosmos 1939 Rocket 3.0 18:30:51 10° S 18:34:58 86° W 18:39:01 10° NNW
SL-24 R/B 4.3 18:34:18 10° NNE 18:39:24 75° ESE 18:43:49 10° S
Cosmos 1340 Rocket 2.8 18:36:14 10° N 18:40:11 84° W 18:44:07 10° S
Meteor 1-24 Rocket 3.9 18:35:15 10° SSE 18:40:40 50° E 18:46:16 10° NNE
CZ-2D R/B 3.3 18:39:13 10° S 18:43:04 81° W 18:46:54 10° NNW
USA 234 3.3 18:37:25 10° SE 18:43:59 84° SW 18:50:32 10° NW
Cosmos 2360 Rocket 3.1 18:40:17 10° SSE 18:44:50 26° ESE 18:49:24 10° NE
Cosmos 2082 4.2 18:41:47 10° N 18:46:58 39° ENE 18:51:48 12° SE
GPS 2-17 Rocket1 3.8 18:43:17 10° W 18:47:36 42° SSW 18:51:20 14° SE
Cosmos 2227 Rocket 2.2 18:44:01 10° NNW 18:49:40 89° ENE 18:55:18 10° SSE
H-2A R/B 4.5 18:47:51 10° SSW 18:50:25 11° S 18:52:11 10° SSE
DELTA 2 R/B (1) 4.2 18:45:22 10° WSW 18:50:49 58° NW 18:56:17 10° NE
FALCON 9 DEB 4.3 18:49:36 10° NW 18:52:48 38° SW 18:56:02 10° SSE
Cosmos 1626 2.0 18:49:50 10° S 18:53:29 63° E 18:57:09 10° NNE
Intelsat 5-1 Rocket 2.9 18:51:01 10° WNW 18:56:50 40° NNE 18:59:01 16° ENE
Cosmos 2219 4.2 18:52:20 10° NNW 18:57:41 46° WSW 19:03:02 10° S
Cosmos 1818 3.5 18:55:37 10° SSW 19:00:58 72° ESE 19:06:21 10° NNE
Cosmos 1553 Rocket 4.1 18:55:13 10° N 19:01:17 76° W 19:07:26 10° S
CZ-2C R/B 3.6 18:56:36 10° SSE 19:02:12 49° ENE 19:07:41 10° N
SL-16 R/B 2.7 18:57:49 10° SSW 19:03:24 63° WNW 19:09:00 10° N
ARGOS 4.0 19:01:08 18° SE 19:04:15 31° ENE 19:08:58 10° NNE
Hubble Space Telescope 0.7 19:00:24 10° WSW 19:04:32 89° NNW 19:08:33 11° ENE
S3M 4.0 19:02:28 10° N 19:08:53 85° E 19:15:14 10° S
Cosmos 1892 Rocket 3.9 19:04:37 10° SSW 19:08:54 65° W 19:13:10 10° N
Nadezhda 2 Rocket 4.4 19:09:36 10° S 19:15:43 66° E 19:21:55 10° NNE
USA 186 3.0 19:16:33 28° ENE 19:16:33 28° ENE 19:19:07 10° NNE
ATLAS 5 CENTAUR R/B 1.7 19:13:31 10° SSW 19:17:31 63° WNW 19:21:28 10° NNE
Meteor 2-14 Rocket 4.4 19:12:31 10° S 19:18:37 68° E 19:24:42 10° N
YAOGAN 1 4.2 19:14:51 10° SSW 19:18:44 32° W 19:22:35 10° NW
ARIANE 5 R/B 3.7 19:15:20 10° WSW 19:18:57 30° S 19:20:05 26° SSE
Meteor 2-21 4.4 19:13:21 10° S 19:19:33 78° E 19:25:44 10° N
Okean 1-7 Rocket 4.3 19:19:33 10° SSW 19:24:01 56° W 19:28:29 10° N
CZ-2C R/B 2.4 19:19:07 10° NNE 19:24:22 81° E 19:29:33 10° S
Orbus 7S 4.3 19:19:41 10° WNW 19:26:24 40° SW 19:27:34 31° S
Cosmos 1626 Rocket 3.6 19:27:04 39° SE 19:28:21 54° E 19:32:40 10° NNE
Orbus 7S 3.9 19:26:00 10° NW 19:28:27 35° NNE 19:28:54 33° NE
Cosmos 1898 Rocket 3.5 19:25:10 10° NNW 19:30:20 81° WSW 19:33:27 24° S
Cosmos 883 Rocket 4.4 19:24:28 10° N 19:30:43 75° E 19:35:18 20° S
Ariane Rocket 3.1 19:29:27 38° SE 19:31:04 53° ENE 19:36:01 10° N
Cosmos 1908 3.7 19:27:23 10° NNW 19:31:13 59° W 19:33:36 22° SSW
Cosmos 2058 Rocket 3.9 19:27:43 10° NNE 19:31:15 34° ENE 19:31:15 34° ENE
USA 215 3.3 19:26:19 10° NNE 19:32:50 80° NW 19:39:21 10° SW
GEOS 3 Rocket 3.7 19:29:40 10° NNE 19:35:02 80° WNW 19:40:19 10° SSW
Cosmos 1244 Rocket 4.4 19:29:16 10° S 19:35:25 89° E 19:41:32 10° N
Cosmos 1745 Rocket 4.4 19:35:40 36° E 19:35:56 36° E 19:41:28 10° NNE
IRS-1A Rocket 4.1 19:42:40 44° SSE 19:44:25 72° ENE 19:49:53 10° N
Meteor 1-21 Rocket 4.3 19:43:51 47° SE 19:45:01 55° E 19:50:45 10° NNE
H-2A R/B 2.5 19:41:26 20° S 19:45:07 62° WSW 19:50:29 10° NNW
Spelda 30 4.0 19:45:37 10° WSW 19:48:45 44° S 19:48:47 44° S
BLOCK DM-SL R/B 3.9 19:33:36 10° W 19:49:05 52° SSW 19:50:23 43° SSE
Cosmos 2322 Rocket 4.4 19:46:14 10° SW 19:50:42 24° WNW 19:55:10 10° NNW
SL-08 ROCKET BODY 4.4 19:51:36 52° E 19:51:36 52° E 19:57:11 10° NNE
SJ 16-02 3.6 19:49:16 10° NW 19:52:38 22° W 19:55:51 11° SSW
MOS 1 4.2 19:52:10 58° SE 19:53:12 73° ENE 19:58:49 10° N
SJ-6B 3.7 19:58:17 43° N 19:58:17 43° N 20:00:59 10° N
BREEZE-M DEB (TANK) 3.3 19:51:36 10° SW 19:56:24 43° SW 19:56:24 43° SW
VEP-3 4.5 19:53:16 10° NW 19:57:50 23° N 20:03:12 10° NE
Cosmos 2228 4.5 19:54:02 10° NNW 19:58:01 36° W 19:59:59 24° SW
Cosmos 1300 4.3 19:59:03 10° N 20:01:00 29° N 20:01:00 29° N
Timation 1 Rocket 4.1 20:01:13 10° NNW 20:07:11 83° ENE 20:07:21 81° ESE
NOSS 3-1 (C) 4.2 20:02:28 10° NNW 20:11:09 83° ENE 20:13:32 55° SSE
Cosmos 2322 3.8 20:13:37 64° SW 20:14:25 76° WNW 20:20:06 10° N
CZ-3A R/B 2.9 20:00:29 10° WSW 20:21:58 76° SSE 20:22:33 72° ESE
NOSS 3-3 (A) 4.2 20:17:53 10° SW 20:23:17 56° WNW 20:28:53 10° NNE
NOSS 3-3 (C) 4.2 20:17:58 10° SW 20:23:23 57° WNW 20:29:01 10° NNE
USA 229 DEB 3.8 20:17:58 10° NNW 20:25:38 90° WSW 20:26:10 80° SSE
USA 229 3.8 20:18:03 10° NNW 20:25:43 89° ENE 20:26:14 80° SSE
Cosmos 2219 Rocket 4.1 20:30:39 20° NNE 20:30:39 20° NNE 20:32:13 10° NNE
Cosmos 2360 Rocket 4.4 20:24:17 10° WSW 20:28:34 22° WNW 20:32:51 10° NNW
Cosmos 2285 Rocket 4.4 20:29:25 10° NNW 20:35:18 59° W 20:35:18 59° W
Cosmos 2333 Rocket 3.7 20:39:22 28° N 20:39:22 28° N 20:42:01 10° N
NOSS 3-1 (A) 4.1 20:27:44 10° NNW 20:36:24 78° ENE 20:36:35 77° E
Resurs 01 Rocket 4.4 20:45:41 13° N 20:45:41 13° N 20:46:11 10° N
Cosmos 2263 Rocket 3.3 20:36:54 10° NNW 20:40:18 39° NNW 20:40:18 39° NNW
Hubble Space Telescope 3.8 20:43:00 10° WNW 20:43:58 14° NW 20:43:58 14° NW
Milstar 3 Cent rocket 3.8 20:56:48 10° WNW 20:59:23 33° WNW 20:59:23 33° WNW
